C/2017 A3 ( Elenin )

Japanese version
Home page
Updated on March 25, 2017

---------------------------------------------------------------------

* Profile

Discovery Date January 5, 2017
Magnitude 17.6 mag
Discoverer L. Elenin (ISON-SSO Observatory at Siding Spring)

* Pictures

* Orbital Elements

Epoch 2017 Feb. 16.0 TT = JDT 2457800.5
T 2017 Jan. 30.63103 TT                                 MPCW
q   3.8543691            (2000.0)            P               Q
z  +0.0231771      Peri.  304.11297     -0.19846037     -0.03171594
 +/-0.0000000      Node    97.90671     +0.81990833     +0.54223404
e   0.9106669      Incl.   98.50705     -0.53699517     +0.83962870
From 147 observations 2017 Jan. 5-Feb. 28, mean residual 0".5.

* Magnitudes Graph

        m1 = 9.0 + 5 log d + 10.0 log r

---------------------------------------------------------------------

The orbital elements are published on M.P.E.C. 2017-E18.
The magnitudes graphs are made with Comet for Windows.

---------------------------------------------------------------------

Copyright(C) Seiichi Yoshida (comet@aerith.net). All rights reserved.